When you browse on this site, cookies collect data to enhance your experience and personalize the content and advertising you see.
Visit our Privacy Policy to learn more. By continuing to use the site, you agree to this use of cookies and data.
  • In Czech Republic
  • List of Countries
  • For 7 days
  • Water Temperature
  • Satellite Maps
  • Weather Map
  • Weather Widgets
  • user-avatar
    Login

    Hourly Weather Milford

    Today, 17 February, Sunday

    Time Temperature Precipitation Wind Pressure Humidity
    00:00 -6°C° 0 mm 3 mps 752 mmHg 71%
    01:00 -6°C° 0 mm 3 mps 752 mmHg 67%
    02:00 -6°C° 0 mm 3 mps 753 mmHg 66%
    03:00 -7°C° 0 mm 3 mps 753 mmHg 64%
    04:00 -7°C° 0 mm 3 mps 753 mmHg 62%
    05:00 -6°C° 0 mm 2 mps 753 mmHg 62%
    06:00 -6°C° 0 mm 2 mps 754 mmHg 61%
    07:00 -6°C° 0 mm 2 mps 754 mmHg 61%
    08:00 -5°C° 0 mm 2 mps 754 mmHg 54%
    09:00 -3°C° 0 mm 2 mps 755 mmHg 47%
    10:00 -2°C° 0 mm 2 mps 755 mmHg 40%
    11:00 +2°C° 0 mm 1 mps 755 mmHg 37%
    12:00 +3°C° 0 mm 1 mps 755 mmHg 34%
    13:00 +4°C° 0 mm 0 mps 754 mmHg 31%
    14:00 +5°C° 0 mm 1 mps 754 mmHg 33%
    15:00 +4°C° 0 mm 1 mps 754 mmHg 35%
    16:00 +4°C° 0 mm 1 mps 754 mmHg 37%
    17:00 +2°C° 0 mm 1 mps 754 mmHg 44%
    18:00 +1°C° 0 mm 1 mps 754 mmHg 51%
    19:00 -1°C° 0 mm 1 mps 754 mmHg 57%
    20:00 -1°C° 0 mm 1 mps 754 mmHg 60%
    21:00 -1°C° 0 mm 1 mps 753 mmHg 63%
    22:00 -1°C° 0 mm 1 mps 753 mmHg 65%
    23:00 -1°C° 0.1 mm 1 mps 753 mmHg 68%

    Tomorrow, 18 February, Monday

    Time Temperature Precipitation Wind Pressure Humidity
    00:00 0°C° 0.1 mm 1 mps 753 mmHg 70%
    01:00 0°C° 0.1 mm 1 mps 753 mmHg 73%
    02:00 0°C° 0.3 mm 1 mps 752 mmHg 78%
    03:00 0°C° 0.3 mm 1 mps 751 mmHg 83%
    04:00 -1°C° 0.3 mm 1 mps 750 mmHg 88%
    05:00 -1°C° 0.6 mm 1 mps 750 mmHg 90%
    06:00 -1°C° 0.6 mm 1 mps 749 mmHg 92%
    07:00 -3°C° 0.6 mm 2 mps 749 mmHg 94%
    08:00 -2°C° 0.6 mm 2 mps 748 mmHg 93%
    09:00 -2°C° 0.6 mm 2 mps 748 mmHg 92%
    10:00 -1°C° 0.6 mm 3 mps 747 mmHg 91%
    11:00 -1°C° 0.2 mm 2 mps 747 mmHg 90%
    12:00 +1°C° 0.2 mm 2 mps 746 mmHg 89%
    13:00 +1°C° 0.2 mm 2 mps 746 mmHg 88%
    14:00 +1°C° 0.2 mm 2 mps 746 mmHg 88%
    15:00 0°C° 0.2 mm 3 mps 747 mmHg 87%
    16:00 0°C° 0.2 mm 3 mps 747 mmHg 87%
    17:00 -1°C° 0 mm 3 mps 748 mmHg 87%
    18:00 -2°C° 0 mm 3 mps 750 mmHg 86%
    19:00 -4°C° 0 mm 3 mps 751 mmHg 86%
    20:00 -5°C° 0 mm 3 mps 752 mmHg 82%
    21:00 -7°C° 0 mm 4 mps 753 mmHg 77%
    22:00 -8°C° 0 mm 5 mps 755 mmHg 73%
    23:00 -10°C° 0 mm 5 mps 755 mmHg 70%

    Day after tomorrow, 19 February, Tuesday

    Time Temperature Precipitation Wind Pressure Humidity
    00:00 -11°C° 0 mm 5 mps 756 mmHg 67%
    01:00 -11°C° 0 mm 4 mps 757 mmHg 64%
    02:00 -11°C° 0 mm 4 mps 758 mmHg 65%
    03:00 -11°C° 0 mm 4 mps 759 mmHg 65%
    04:00 -11°C° 0 mm 4 mps 759 mmHg 66%
    05:00 -12°C° 0 mm 4 mps 760 mmHg 65%
    06:00 -12°C° 0 mm 4 mps 761 mmHg 63%
    07:00 -12°C° 0 mm 4 mps 762 mmHg 62%
    08:00 -11°C° 0 mm 4 mps 762 mmHg 57%
    09:00 -9°C° 0 mm 4 mps 763 mmHg 53%
    10:00 -8°C° 0 mm 4 mps 763 mmHg 48%
    11:00 -6°C° 0 mm 3 mps 763 mmHg 46%
    12:00 -5°C° 0 mm 3 mps 763 mmHg 44%
    13:00 -4°C° 0 mm 3 mps 763 mmHg 42%
    14:00 -4°C° 0 mm 3 mps 763 mmHg 43%
    15:00 -4°C° 0 mm 3 mps 763 mmHg 44%
    16:00 -4°C° 0 mm 3 mps 763 mmHg 45%
    17:00 -5°C° 0 mm 3 mps 764 mmHg 51%
    18:00 -5°C° 0 mm 2 mps 764 mmHg 57%
    19:00 -6°C° 0 mm 2 mps 765 mmHg 63%
    20:00 -7°C° 0 mm 2 mps 765 mmHg 64%
    21:00 -7°C° 0 mm 2 mps 765 mmHg 64%
    22:00 -7°C° 0 mm 2 mps 766 mmHg 65%
    23:00 -8°C° 0 mm 2 mps 766 mmHg 65%

    20 February, Wednesday

    Time Temperature Precipitation Wind Pressure Humidity
    00:00 -8°C° 0 mm 2 mps 766 mmHg 65%
    01:00 -9°C° 0 mm 2 mps 766 mmHg 66%
    02:00 -8°C° 0 mm 1 mps 766 mmHg 64%
    03:00 -8°C° 0 mm 1 mps 766 mmHg 63%
    04:00 -8°C° 0 mm 1 mps 766 mmHg 62%
    05:00 -8°C° 0 mm 1 mps 766 mmHg 63%
    06:00 -8°C° 0 mm 1 mps 767 mmHg 64%
    07:00 -8°C° 0 mm 1 mps 767 mmHg 64%
    08:00 -7°C° 0 mm 1 mps 767 mmHg 58%
    09:00 -4°C° 0 mm 1 mps 767 mmHg 51%
    10:00 -3°C° 0 mm 1 mps 767 mmHg 44%
    11:00 -2°C° 0 mm 1 mps 767 mmHg 43%
    12:00 -1°C° 0 mm 1 mps 766 mmHg 41%
    13:00 0°C° 0 mm 1 mps 765 mmHg 39%
    14:00 0°C° 0 mm 1 mps 765 mmHg 42%
    15:00 0°C° 0 mm 1 mps 765 mmHg 44%
    16:00 -3°C° 0 mm 2 mps 765 mmHg 47%
    17:00 -3°C° 0 mm 2 mps 764 mmHg 51%
    18:00 -3°C° 0 mm 2 mps 764 mmHg 55%
    19:00 -4°C° 0 mm 2 mps 763 mmHg 60%
    20:00 -5°C° 0.1 mm 3 mps 763 mmHg 63%
    21:00 -5°C° 0.1 mm 3 mps 762 mmHg 66%
    22:00 -5°C° 0.1 mm 3 mps 761 mmHg 70%
    23:00 -5°C° 0.2 mm 3 mps 760 mmHg 75%

    21 February, Thursday

    Time Temperature Precipitation Wind Pressure Humidity
    00:00 -4°C° 0.2 mm 3 mps 759 mmHg 80%
    01:00 -4°C° 0.2 mm 3 mps 758 mmHg 86%
    02:00 -2°C° 0.3 mm 3 mps 756 mmHg 89%
    03:00 -1°C° 0.3 mm 3 mps 755 mmHg 92%
    04:00 +1°C° 0.3 mm 3 mps 753 mmHg 95%
    05:00 +1°C° 0.2 mm 3 mps 752 mmHg 96%
    06:00 +3°C° 0.2 mm 2 mps 751 mmHg 96%
    07:00 +4°C° 0.2 mm 2 mps 750 mmHg 97%
    08:00 +4°C° 0 mm 3 mps 750 mmHg 94%
    09:00 +5°C° 0 mm 3 mps 749 mmHg 91%
    10:00 +7°C° 0 mm 4 mps 749 mmHg 88%
    11:00 +8°C° 0 mm 5 mps 749 mmHg 81%
    12:00 +8°C° 0 mm 5 mps 749 mmHg 74%
    13:00 +9°C° 0 mm 6 mps 749 mmHg 67%
    14:00 +8°C° 0 mm 5 mps 749 mmHg 69%
    15:00 +6°C° 0 mm 5 mps 750 mmHg 71%
    16:00 +5°C° 0 mm 5 mps 750 mmHg 72%
    17:00 +3°C° 0 mm 4 mps 751 mmHg 75%
    18:00 +1°C° 0 mm 4 mps 752 mmHg 78%
    19:00 0°C° 0 mm 3 mps 754 mmHg 81%
    20:00 0°C° 0 mm 3 mps 754 mmHg 82%
    21:00 -1°C° 0 mm 3 mps 755 mmHg 82%
    22:00 -1°C° 0 mm 2 mps 756 mmHg 83%
    23:00 -1°C° 0 mm 2 mps 756 mmHg 83%

    22 February, Friday

    Time Temperature Precipitation Wind Pressure Humidity
    00:00 -1°C° 0 mm 2 mps 756 mmHg 84%
    01:00 -1°C° 0 mm 2 mps 756 mmHg 85%
    02:00 -2°C° 0 mm 2 mps 756 mmHg 85%
    03:00 0°C° 0 mm 1 mps 756 mmHg 85%
    04:00 -1°C° 0 mm 1 mps 757 mmHg 86%
    05:00 -1°C° 0 mm 1 mps 757 mmHg 85%
    06:00 -1°C° 0 mm 1 mps 757 mmHg 85%
    07:00 -1°C° 0 mm 1 mps 758 mmHg 84%
    08:00 0°C° 0 mm 1 mps 758 mmHg 81%
    09:00 +2°C° 0 mm 1 mps 758 mmHg 77%
    10:00 +3°C° 0 mm 1 mps 758 mmHg 73%
    11:00 +4°C° 0 mm 1 mps 758 mmHg 72%
    12:00 +4°C° 0 mm 1 mps 758 mmHg 72%
    13:00 +5°C° 0 mm 1 mps 758 mmHg 71%
    14:00 +5°C° 0 mm 1 mps 758 mmHg 72%
    15:00 +5°C° 0 mm 1 mps 758 mmHg 73%
    16:00 +5°C° 0 mm 1 mps 758 mmHg 74%
    17:00 +3°C° 0 mm 1 mps 758 mmHg 79%
    18:00 +2°C° 0 mm 1 mps 758 mmHg 84%
    19:00 +1°C° 0 mm 1 mps 758 mmHg 89%
    20:00 0°C° 0 mm 1 mps 759 mmHg 90%
    21:00 0°C° 0 mm 1 mps 759 mmHg 91%
    22:00 -1°C° 0 mm 1 mps 759 mmHg 92%
    23:00 -1°C° 0 mm 1 mps 759 mmHg 92%
    Show more